Bei Facebook empfehlenBei Twitter postenGoogle plusPinterest

Das Wetter im Erzgebirge am 23.11.2015

Wetter und Klima am 23.11.2015 Holzhau im Erzgebirge (630m ü.NN)
Letzte gemessene Temperatur und Uhrzeit der Messung23:45:00 Uhr-5.50 °C
Temperatur (Maximum / Höchstwert) und Uhrzeit der Messung19:30:00 Uhr-1.80 °C
Temperatur (Minimum / Tiefstwert) und Uhrzeit der Messung02:30:00-6.60 °C
Errechneter Absolutwert der Temperaturschwankungen zwischen Tmin und Tmax des Tages4.80 K
Errechnete Tagesmitteltemperatur-3.05938 °C
Gesamt - Niederschlag des Tages (in flüssiger Form)0.00 Liter / m²
Luftdruck (Maximum / Höchstwert) und Zeitpunkt der Messung21:45:00 Uhr1018.70 hPa
Luftdruck (Minimum / Tiefstwert) und Zeitpunkt der Messung01:30:00 Uhr1005.10 hPa
Errechneter Absolutwert der Luftdruckschwankungen des Tages13.60 hPa
Höchste gemessene Windgeschwindigkeit und Uhrzeit der Messung14:30:00 Uhr10.08 km/h
Errechnete Windhäufigkeit in Relation zu den Messwerten des Tages9.37500 %
Niedrigste Windkühle (Windchill) und Zeitpunkt der Messung02:30:00 Uhr-6.60 °C
Taupunkt (Maximum / Höchstwert) und Uhrzeit der Messung19:30:00 Uhr-2.90 °C
Taupunkt (Minimum / Tiefstwert) und Uhrzeit der Messung02:30:00-8.00 °C
Anzahl der automatisch eingelesenen Messwerte 96

Detaillierte Wetter- und Klima- Messwerte für den 23.11.2015 in Holzhau im Erzgebirge (630m ü.NN)
ZeitTemperaturLuftdruckRel. LuftfeuchteWindWindrichtungWindchillTaupunktNiederschlag l/m²
23:45:00-5.50 °C1018.40 hPa93.00 %-6.60 °C 
23:30:00-4.90 °C1018.50 hPa93.00 %-6.00 °C 
23:15:00-4.40 °C1018.50 hPa93.00 %-5.50 °C 
23:00:00-3.90 °C1018.40 hPa93.00 %-5.00 °C 
22:45:00-3.20 °C1018.40 hPa93.00 %-4.30 °C 
22:30:00-2.70 °C1018.40 hPa94.00 %-3.60 °C 
22:15:00-2.80 °C1018.50 hPa94.00 %-3.70 °C 
22:00:00-2.70 °C1018.50 hPa93.00 %-3.80 °C 
21:45:00-2.60 °C1018.70 hPa93.00 %-3.70 °C 
21:30:00-2.60 °C1018.70 hPa93.00 %-3.70 °C 
21:15:00-2.50 °C1018.70 hPa93.00 %-3.60 °C 
21:00:00-2.50 °C1018.50 hPa93.00 %-3.60 °C 
20:45:00-2.40 °C1018.20 hPa93.00 %-3.50 °C 
20:30:00-2.10 °C1018.30 hPa93.00 %-3.20 °C 
20:15:00-1.90 °C1018.30 hPa93.00 %-3.00 °C 
20:00:00-1.90 °C1018.10 hPa93.00 %-3.00 °C 
19:45:00-1.90 °C1017.90 hPa93.00 %-3.00 °C 
19:30:00-1.80 °C1017.90 hPa93.00 %-2.90 °C 
19:15:00-1.80 °C1017.70 hPa93.00 %5.04 km/hWSW-3.70 °C-2.90 °C 
19:00:00-1.90 °C1017.50 hPa93.00 %-3.00 °C 
18:45:00-1.90 °C1017.40 hPa93.00 %-3.00 °C 
18:30:00-1.90 °C1017.10 hPa93.00 %-3.00 °C 
18:15:00-2.10 °C1016.90 hPa92.00 %-3.40 °C 
18:00:00-2.10 °C1016.80 hPa92.00 %-3.40 °C 
17:45:00-2.20 °C1016.40 hPa92.00 %-3.50 °C 
17:30:00-2.40 °C1016.30 hPa92.00 %-3.70 °C 
17:15:00-2.40 °C1016.10 hPa92.00 %-3.70 °C 
17:00:00-2.50 °C1015.90 hPa92.00 %-3.80 °C 
16:45:00-2.50 °C1015.80 hPa92.00 %-3.80 °C 
16:30:00-2.60 °C1015.70 hPa92.00 %-3.90 °C 
16:15:00-2.70 °C1015.40 hPa91.00 %-4.10 °C 
16:00:00-2.70 °C1015.30 hPa91.00 %-4.10 °C 
15:45:00-2.70 °C1015.10 hPa91.00 %-4.10 °C 
15:30:00-2.70 °C1015.00 hPa91.00 %-4.10 °C 
15:15:00-2.70 °C1014.90 hPa91.00 %-4.10 °C 
15:00:00-2.70 °C1014.60 hPa90.00 %-4.30 °C 
14:45:00-2.60 °C1014.60 hPa90.00 %4.68 km/hWSW-2.60 °C-4.20 °C 
14:30:00-2.40 °C1014.30 hPa91.00 %10.08 km/hWSW-6.20 °C-3.80 °C 
14:15:00-2.20 °C1013.90 hPa91.00 %-3.60 °C 
14:00:00-2.40 °C1013.80 hPa91.00 %-3.80 °C 
13:45:00-2.10 °C1013.80 hPa91.00 %6.48 km/hWSW-4.60 °C-3.50 °C 
13:30:00-2.40 °C1013.70 hPa92.00 %-3.70 °C 
13:15:00-2.70 °C1013.90 hPa92.00 %-3.90 °C 
13:00:00-2.70 °C1013.90 hPa92.00 %-3.90 °C 
12:45:00-2.60 °C1013.50 hPa92.00 %-3.90 °C 
12:30:00-2.60 °C1013.30 hPa92.00 %7.20 km/hWSW-5.50 °C-3.90 °C 
12:15:00-2.60 °C1013.30 hPa92.00 %-3.90 °C 
12:00:00-2.70 °C1013.20 hPa92.00 %-3.90 °C 
11:45:00-2.40 °C1013.00 hPa92.00 %2.88 km/hWSW-2.40 °C-3.70 °C 
11:30:00-2.40 °C1012.90 hPa92.00 %-3.70 °C 
11:15:00-2.20 °C1012.90 hPa93.00 %-3.30 °C 
11:00:00-2.10 °C1012.70 hPa93.00 %-3.20 °C 
10:45:00-2.10 °C1012.30 hPa93.00 %-3.20 °C 
10:30:00-1.90 °C1012.10 hPa93.00 %-3.00 °C 
10:15:00-2.10 °C1011.70 hPa93.00 %-3.20 °C 
10:00:00-2.10 °C1011.40 hPa93.00 %-3.20 °C 
09:45:00-2.10 °C1011.20 hPa93.00 %-3.20 °C 
09:30:00-2.10 °C1010.80 hPa93.00 %-3.20 °C 
09:15:00-2.00 °C1010.70 hPa93.00 %5.04 km/hWSW-3.90 °C-3.10 °C 
09:00:00-1.90 °C1010.50 hPa93.00 %-3.00 °C 
08:45:00-2.20 °C1010.20 hPa93.00 %-3.30 °C 
08:30:00-2.50 °C1009.80 hPa93.00 %-3.60 °C 
08:15:00-2.50 °C1009.60 hPa93.00 %-3.60 °C 
08:00:00-2.60 °C1009.40 hPa93.00 %2.16 km/hWSW-2.60 °C-3.70 °C 
07:45:00-2.70 °C1009.00 hPa93.00 %-3.80 °C 
07:30:00-2.80 °C1008.60 hPa93.00 %-3.90 °C 
07:15:00-2.80 °C1008.30 hPa93.00 %-3.90 °C 
07:00:00-2.90 °C1008.40 hPa93.00 %-4.00 °C 
06:45:00-2.90 °C1007.90 hPa93.00 %-4.00 °C 
06:30:00-2.90 °C1007.80 hPa93.00 %-4.00 °C 
06:15:00-3.00 °C1007.60 hPa92.00 %-4.20 °C 
06:00:00-2.90 °C1007.20 hPa92.00 %-4.10 °C 
05:45:00-2.80 °C1007.10 hPa92.00 %-4.00 °C 
05:30:00-2.80 °C1007.00 hPa92.00 %-4.00 °C 
05:15:00-2.80 °C1006.80 hPa92.00 %-4.00 °C 
05:00:00-3.00 °C1006.70 hPa92.00 %-4.20 °C 
04:45:00-3.20 °C1006.60 hPa92.00 %4.32 km/hWSW-3.20 °C-4.40 °C 
04:30:00-3.40 °C1006.40 hPa92.00 %-4.60 °C 
04:15:00-3.60 °C1006.10 hPa92.00 %-4.80 °C 
04:00:00-3.90 °C1006.20 hPa92.00 %-5.10 °C 
03:45:00-4.40 °C1006.20 hPa92.00 %-5.60 °C 
03:30:00-4.80 °C1006.20 hPa92.00 %-6.00 °C 
03:15:00-5.20 °C1005.90 hPa92.00 %-6.40 °C 
03:00:00-6.10 °C1005.90 hPa91.00 %-7.50 °C 
02:45:00-6.50 °C1005.70 hPa91.00 %-7.90 °C 
02:30:00-6.60 °C1005.80 hPa91.00 %-8.00 °C 
02:15:00-6.50 °C1005.40 hPa91.00 %-7.90 °C 
02:00:00-6.20 °C1005.40 hPa91.00 %-7.60 °C 
01:45:00-6.20 °C1005.20 hPa91.00 %-7.60 °C 
01:30:00-5.80 °C1005.10 hPa91.00 %-7.20 °C 
01:15:00-5.40 °C1005.10 hPa91.00 %-6.80 °C 
01:00:00-5.10 °C1005.20 hPa91.00 %-6.50 °C 
00:45:00-4.70 °C1005.20 hPa91.00 %-6.10 °C 
00:30:00-4.20 °C1005.20 hPa91.00 %-5.60 °C 
00:15:00-3.90 °C1005.30 hPa91.00 %-5.30 °C 
00:00:00-3.70 °C1005.30 hPa91.00 %-5.10 °C 

Permanenter Link zu dieser Seite: Wetter im Erzgebirge am 23.11.2015
Performance-Info: Die Erstellung der Seite / Statistik(en) / Tabelle(n) erforderte 5 Datenbankserver-Abfrage(n) und dauerte 97 Millisekunden. (Dieser Messwert ist von der Gesamt-Auslastung des Servers abhängig.)
Erzgebirge - Wetter | Erzgebirge - Wetter (Mobilgeräte) | Komplette Klimadatenbank